SCP
4 4 5 6 7 6 5 4 4 4 4 4 3 3 2 2 2 1 1 1 1 2 2 2 2 1 1 1 1 0 0 0 0 0 0 1 1 1 0 0 0 0 0
4 4 5 5 6 6 5 4 4 4 4 4 3 3 2 2 2 2 1 1 1 2 2 2 2 1 1 1 1 1 1 1 0 1 1 1 1 0 0 0 0 0 0
4 3 3 4 4 4 4 4 4 4 3 3 3 3 2 2 2 2 1 1 2 2 2 2 2 1 1 1 1 1 1 1 1 1 1 1 0 0 0 0 0 0 0
3 3 3 3 3 3 3 4 3 3 3 2 2 2 2 2 2 2 2 2 2 2 2 2 2 1 1 1 1 1 1 1 1 1 1 1 1 0 0 0 1 1 0
3 2 2 3 3 3 4 4 3 3 2 2 2 2 2 1 1 1 2 2 2 2 2 2 2 2 1 1 1 1 1 1 1 1 1 1 1 1 1 1 1 1 1
3 3 3 4 4 4 4 4 3 3 2 2 1 2 2 1 1 2 2 2 2 2 2 2 2 2 2 2 2 1 1 1 1 1 1 1 1 1 1 1 1 1 1
4 4 4 5 5 5 5 4 3 3 2 2 1 1 2 2 2 2 3 3 2 2 2 2 2 2 3 3 2 2 2 1 1 1 1 1 1 1 1 1 1 1 1
4 4 5 5 6 5 4 4 3 3 2 2 1 2 2 2 2 2 3 3 3 3 2 2 2 2 3 3 3 3 2 2 2 1 1 2 2 2 2 2 2 2 2
3 4 4 5 5 5 3 3 4 3 2 2 2 2 2 2 2 2 2 3 3 3 2 2 2 3 4 4 4 4 3 2 2 2 2 2 2 2 2 2 3 3 4
5 5 5 5 4 4 3 3 4 3 3 2 2 2 2 2 2 2 2 2 3 3 3 3 3 3 4 5 5 4 3 3 2 2 2 2 2 3 3 3 3 3 4
6 6 5 5 5 4 4 4 3 3 3 3 3 2 2 2 2 2 2 2 3 4 3 3 4 4 4 5 5 5 4 3 3 3 3 3 3 3 3 3 2 2 2
7 6 5 6 5 5 4 4 4 4 3 4 4 3 3 3 3 2 2 2 4 5 5 5 5 5 5 5 5 5 4 3 3 3 3 4 4 4 3 2 1 1 1
7 6 5 5 5 5 5 6 6 5 4 4 5 5 4 4 4 3 2 3 4 5 5 5 6 6 6 6 6 5 4 4 4 4 4 4 4 3 2 1 1 1 1
7 6 5 5 5 6 7 7 6 4 4 4 5 6 6 5 5 4 3 3 5 6 5 5 6 6 6 6 6 5 4 4 4 4 4 3 3 3 2 2 2 2 1
7 6 6 5 6 7 8 8 6 4 3 4 6 6 7 6 5 4 4 4 5 5 4 4 4 5 5 5 5 4 4 4 4 4 3 3 3 3 2 3 2 2 2
7 6 6 6 5 6 7 7 5 5 5 6 6 6 6 6 5 5 4 5 4 4 4 4 4 4 4 4 4 3 3 3 3 3 3 3 3 3 3 2 2 2 2
5 5 6 7 7 7 8 8 8 8 8 6 5 5 5 5 5 5 5 5 5 5 4 4 3 3 3 3 2 2 3 3 3 4 3 3 3 3 3 2 1 1 1
4 5 7 8 9 9 8 9 10 9 8 6 4 4 4 4 4 5 5 6 6 6 5 4 3 3 3 2 2 2 2 3 3 3 3 3 3 3 3 2 1 1 1
5 6 6 7 7 7 6 7 7 7 5 4 4 3 3 3 3 3 4 5 6 6 5 3 3 3 2 2 1 2 2 3 3 3 3 4 4 4 3 3 2 1 0
6 6 5 4 4 4 4 4 3 3 3 3 3 3 3 3 2 2 3 4 5 5 4 3 2 2 2 2 1 1 2 3 4 4 4 4 4 4 4 4 3 2 1
8 8 6 3 2 2 3 3 2 2 3 3 2 2 2 2 2 2 3 3 3 4 4 3 2 2 2 1 1 1 2 3 4 5 6 5 4 3 3 3 3 2 2
9 8 6 4 2 2 2 3 2 3 4 4 3 3 2 2 3 3 3 2 2 3 3 3 2 2 1 1 1 1 1 2 4 5 5 4 2 1 1 1 1 1 1
8 8 7 5 3 2 1 1 2 2 4 5 4 3 3 3 3 3 3 2 2 2 3 2 2 2 2 2 1 1 1 1 3 4 3 2 1 0 0 0 0 0 0
6 7 7 6 4 2 2 1 1 2 3 4 4 3 3 2 2 2 2 2 2 2 2 2 2 2 2 2 2 2 1 1 1 2 1 0 0 0 0 0 0 0 0
4 5 6 6 5 3 2 2 2 2 2 2 3 3 2 2 1 1 2 2 2 2 2 2 2 2 2 2 2 1 1 1 1 1 0 0 0 0 0 0 0 0 0
3 4 6 6 5 4 2 2 2 2 2 2 2 2 2 2 1 1 1 1 1 1 1 1 1 1 1 1 1 1 1 1 1 0 0 1 1 1 0 0 0 0 0
Wind_Speed
9 9 9 9 8 7 7 6 6 5 4 2 2 2 1 1 1 1 2 2 3 3 3 2 2 2 3 3 3 2 2 2 1 0 1 2 2 2 2 2 2 3 3
8 9 8 8 9 9 8 7 6 5 5 3 3 2 2 1 1 1 1 2 2 2 3 2 2 3 2 2 2 2 2 2 2 2 1 1 3 2 2 1 1 2 2
12 10 9 8 9 9 9 8 7 6 5 4 3 2 2 1 1 0 0 1 2 2 2 2 3 2 2 2 2 2 3 2 1 1 3 2 2 2 2 1 1 1 1
9 9 9 8 10 9 8 8 7 6 5 4 4 4 3 2 2 1 1 1 1 2 2 2 2 2 2 2 2 2 2 2 1 1 1 2 3 2 1 2 1 1 1
11 11 10 9 8 8 7 7 6 6 5 5 5 4 3 2 1 1 1 1 1 1 2 2 2 2 2 2 1 1 2 2 2 1 1 1 0 1 2 1 2 1 1
11 10 9 7 6 7 7 7 6 5 5 5 5 5 5 3 3 2 1 1 1 1 1 2 2 2 2 2 2 1 2 1 1 1 1 1 1 1 2 2 1 1 1
10 9 9 9 8 8 8 7 7 5 5 4 4 5 5 5 4 3 2 2 1 1 1 1 2 2 2 2 2 1 1 1 1 1 1 1 1 1 2 2 1 1 1
8 10 10 9 10 10 9 8 8 6 5 4 4 4 4 3 2 3 3 2 2 2 1 1 1 2 2 2 2 1 1 1 1 1 1 1 1 1 2 2 2 0 1
8 10 10 9 9 9 9 9 8 7 6 5 4 3 4 4 3 3 2 2 2 1 1 1 1 1 1 1 2 1 1 1 1 1 1 1 1 1 1 1 2 3 1
7 8 8 8 7 7 7 7 8 7 6 6 6 5 4 4 4 3 3 2 2 1 1 1 1 1 1 1 1 1 1 1 0 1 1 0 0 0 0 1 1 1 3
7 7 7 7 6 5 5 5 6 7 6 6 5 5 4 4 3 3 3 3 2 2 2 2 2 1 1 1 1 1 1 1 1 1 1 1 1 0 0 1 1 1 2
6 5 6 6 6 6 6 6 6 6 7 6 6 5 4 3 3 3 3 3 3 2 2 2 2 2 2 2 2 2 1 2 2 2 1 1 1 0 0 1 1 1 1
6 4 4 5 5 5 5 5 5 5 5 6 6 5 4 4 4 4 4 3 3 3 2 2 3 3 2 2 2 3 2 2 3 3 2 2 1 1 1 1 1 1 1
6 5 4 4 4 5 5 4 4 4 5 4 5 5 5 5 5 4 4 3 3 3 3 3 3 3 3 2 2 3 3 2 2 2 2 2 3 3 2 1 1 1 1
5 5 4 3 4 4 3 3 3 3 4 4 4 4 4 4 4 3 4 3 3 3 3 2 2 2 2 3 3 3 3 3 2 1 2 2 2 2 2 2 2 2 1
4 5 4 4 4 4 4 3 3 3 3 4 3 3 2 2 3 3 3 3 3 3 3 2 2 2 2 2 4 3 2 2 2 2 1 1 1 1 1 2 3 3 3
4 5 4 4 3 3 3 4 3 3 3 3 2 2 2 2 3 3 3 4 4 3 3 2 2 2 2 3 3 4 3 3 3 3 2 1 1 1 1 1 1 2 3
3 3 2 2 2 2 2 2 3 3 3 2 2 2 2 2 2 2 3 4 3 3 3 3 3 3 3 3 4 4 3 2 2 3 3 3 2 2 1 1 1 2 2
3 3 3 2 3 3 3 3 2 3 2 2 2 2 2 2 2 2 3 3 3 2 2 2 3 3 3 4 4 4 2 2 2 2 3 3 3 3 2 1 1 2 3
2 2 2 3 3 2 4 3 1 2 2 2 2 1 2 2 2 2 2 2 2 3 2 2 3 3 4 5 4 4 2 2 2 2 2 3 3 3 3 2 2 2 3
2 2 3 3 2 2 4 3 1 1 2 1 1 1 1 1 1 1 2 2 2 2 2 2 2 3 4 4 5 5 3 3 3 2 2 2 3 3 3 3 3 4 3
2 3 3 2 1 2 4 3 2 2 1 1 1 1 1 1 1 0 1 1 2 2 2 2 2 3 3 3 4 5 5 4 3 3 2 2 3 3 2 2 2 2 1
1 2 3 2 1 1 3 3 3 1 1 1 0 1 1 1 0 1 1 2 1 2 2 2 3 3 2 3 4 4 5 5 3 3 3 2 3 2 1 1 0 1 1
1 2 2 2 1 1 1 2 2 1 1 1 1 1 1 1 1 1 1 2 2 2 2 2 3 3 2 2 2 2 2 3 2 1 1 2 2 1 0 1 0 1 1
1 1 2 2 2 1 1 1 1 1 1 1 1 1 1 2 1 1 1 2 2 3 3 3 3 3 3 4 4 4 3 3 3 2 1 1 0 0 1 1 1 1 1
1 0 0 1 2 1 1 1 1 1 2 1 1 1 1 1 1 1 1 2 2 2 2 4 3 3 4 4 5 5 4 4 5 4 2 2 2 2 2 2 2 1 2
Wind_Direction
180 173 167 164 157 152 149 153 151 158 150 141 142 143 164 175 182 194 184 182 183 183 173 181 177 175 188 207 207 195 205 228 204 171 314 315 275 233 232 227 208 214 206
171 173 168 164 161 159 160 158 160 164 163 165 163 162 157 180 184 190 181 186 182 182 176 171 176 182 183 194 199 188 185 219 181 162 133 340 338 312 268 228 200 207 194
175 174 170 169 163 164 168 168 167 163 166 159 138 120 84 56 55 46 236 226 202 198 187 176 174 179 173 185 197 183 171 194 234 171 155 164 230 299 324 287 205 193 192
169 166 166 166 170 174 169 165 165 162 163 154 149 152 158 170 199 198 207 234 208 194 196 181 171 171 166 178 203 187 174 163 205 255 210 187 174 171 300 322 304 221 200
174 171 172 171 172 169 164 164 161 160 164 161 162 159 164 180 182 171 191 238 254 223 191 171 159 167 175 183 189 171 168 172 181 195 203 203 178 165 168 268 313 343 290
178 171 164 153 153 159 160 162 158 167 169 165 161 161 167 165 155 168 184 230 264 256 208 177 177 187 186 185 186 181 164 167 167 174 167 165 164 188 171 201 239 276 283
169 163 158 157 158 161 164 162 164 173 175 168 170 170 172 168 169 179 180 184 229 253 245 203 189 194 194 181 166 154 155 160 160 181 182 170 182 183 167 164 199 250 293
166 163 164 166 168 172 172 169 170 171 171 170 181 178 172 168 172 178 175 182 202 219 218 186 180 182 183 187 164 164 196 168 181 167 153 150 184 163 164 169 160 145 328
166 164 167 170 172 174 177 173 168 169 171 173 171 172 172 172 173 177 173 187 202 200 192 188 192 195 178 181 162 175 211 179 185 185 152 160 194 147 156 151 157 162 195
154 157 165 167 172 176 174 164 165 171 179 181 185 179 179 179 176 170 178 191 201 199 186 199 198 187 174 158 164 193 207 158 213 168 123 131 235 169 148 141 135 152 168
153 153 163 164 160 158 164 168 173 169 178 185 184 180 187 185 176 173 186 192 198 190 194 204 191 193 220 208 181 205 175 169 183 181 151 214 207 179 147 117 115 135 146
133 141 151 150 152 161 168 171 176 177 184 184 180 188 193 186 184 189 199 192 191 195 193 197 192 205 220 213 189 203 204 187 188 202 190 223 176 158 212 159 155 188 187
124 123 135 143 153 158 158 165 173 182 185 183 183 189 193 194 203 208 206 196 194 201 203 195 202 215 222 222 210 191 198 202 201 201 199 208 165 187 216 187 196 214 199
130 135 138 141 146 151 154 160 176 177 175 177 185 194 203 204 206 206 205 202 196 196 209 217 216 217 220 219 214 198 192 197 206 210 200 194 186 193 199 189 206 191 160
123 131 136 142 136 131 140 146 160 179 180 175 184 197 206 209 207 202 200 198 196 203 207 210 226 237 228 222 207 206 195 197 206 216 206 199 190 190 198 200 197 173 170
115 118 122 130 142 153 160 156 165 178 170 172 181 183 183 192 200 200 196 191 196 203 193 201 215 238 250 222 197 182 180 179 187 213 234 222 215 230 233 228 206 186 192
135 133 137 146 152 169 167 165 174 161 141 158 170 177 179 186 197 197 186 191 201 199 191 204 197 216 248 220 192 181 174 181 197 206 214 232 247 252 253 264 268 256 235
107 104 111 121 129 126 133 148 145 140 141 147 157 181 186 196 203 197 203 211 202 194 199 209 211 214 237 216 199 185 179 192 208 208 202 205 232 243 203 200 278 274 262
136 143 142 129 105 103 106 102 110 120 123 152 181 188 184 189 192 212 223 221 198 194 205 206 208 217 241 224 205 184 179 195 217 214 201 194 211 229 198 174 243 297 297
107 119 127 110 112 124 118 109 115 132 157 183 199 192 189 188 202 220 223 223 207 203 199 220 221 213 232 233 218 192 184 197 217 230 227 215 216 226 197 182 195 246 272
137 129 128 129 142 129 117 117 134 219 230 202 191 191 193 206 214 227 231 223 214 200 206 229 243 229 227 228 224 204 188 197 206 218 232 240 229 227 222 207 206 227 238
118 135 129 119 115 129 131 138 197 241 238 144 183 225 234 241 238 167 301 262 216 207 229 237 254 252 236 222 227 214 202 196 192 216 225 225 218 214 222 219 232 220 197
121 141 137 129 133 161 159 174 223 224 165 121 226 244 260 267 249 190 248 280 255 207 227 225 236 250 252 242 236 217 208 206 201 218 217 219 208 202 224 264 223 148 137
105 138 134 144 193 208 203 216 232 176 138 186 252 255 254 280 286 243 232 236 236 228 233 233 232 234 242 239 219 199 204 205 206 215 207 199 191 181 240 268 233 195 189
19 102 151 177 215 223 237 239 214 173 181 223 251 260 252 241 251 260 257 248 247 229 221 232 219 211 231 235 208 186 189 188 186 153 117 98 111 258 284 275 254 231 211
53 24 226 216 230 210 229 246 214 210 205 235 264 250 241 238 224 212 327 327 271 277 253 233 215 228 225 215 191 182 177 172 159 139 158 203 216 222 229 237 251 241 230